Weather Roundup
Issued by NWS

Home | Current Version | Previous Version | Text Only | Print | Product List | Glossary On
Versions: 1 2 3 4 5 6 7 8 9 10 11 12 13 14 15 16 17 18 19 20 21 22 23 24 25 26 27 28 29 30 31 32 33 34 35 36 37 38 39 40 41 42 43 44 45 46 47 48 49 50
000
NZUS93 KARX 270459
HRRWXR

CURRENT HOURLY OBSERVATIONS ACROSS
MUCH OF THE UPPER MISSISSIPPI VALLEY
NATIONAL WEATHER SERVICE LA CROSSE WI
1100 PM CST MON JAN 26 2015


...SOUTHEAST MINNESOTA...


CITY           SKY/WX    TMP DP  RH WIND       PRES   REMARKS
ROCHESTER      CLOUDY    35  30  82 NW13      29.92R WCI  26
ROCHESTER/MAYO CLOUDY    37  27  66 NW12G20   29.92R WCI  29
WINONA         CLOUDY    30  28  93 CALM      29.93R
AUSTIN         CLOUDY    36  30  80 NW8       29.94R WCI  29
ALBERT LEA     CLOUDY    36  32  87 NW7       29.95R WCI  30
DODGE CENTER   CLOUDY    36  32  87 NW10      29.93R WCI  28
PRESTON        CLOUDY    35  30  83 NW12      29.91R WCI  27
OWATONNA       CLOUDY    36  30  80 NW12      29.96R WCI  27
FARIBAULT      CLOUDY    36  30  80 W8        29.96R WCI  29
$$

...ELSEWHERE IN MINNESOTA...


CITY           SKY/WX    TMP DP  RH WIND       PRES   REMARKS
MINNEAPOLIS    CLOUDY    37  28  70 NW7       29.96R WCI  32
INTNL FALLS    CLOUDY    25  21  85 NW3       29.97R
DULUTH         CLOUDY    28  22  78 N5        29.93R WCI  23
RED WING       CLOUDY    37  28  70 N3        29.94R
REDWOOD FALLS  PTCLDY    32  29  88 N7        30.00R WCI  26
MANKATO        CLOUDY    34  28  80 NW12      29.98R WCI  25
WORTHINGTON    CLEAR     32  28  86 NW8       30.01R WCI  25
FAIRMONT       CLEAR     34  28  80 NW10      29.98R WCI  26
$$

...SOUTHWEST WISCONSIN...


CITY           SKY/WX    TMP DP  RH WIND       PRES   REMARKS
LA CROSSE      LGT SNOW  30  27  88 CALM      29.92R FOG
PRAIRIE DU CHI CLOUDY    29  26  89 CALM      29.90R FOG
BOSCOBEL       CLOUDY    27  24  89 CALM      29.92R FOG
LONE ROCK      NOT AVBL
PLATTEVILLE    MOCLDY    26  25  96 CALM      29.88R
FORT MC COY    CLOUDY    27  27 100 CALM      29.91R FOG
VIROQUA        CLOUDY    27  27 100 NW3       29.87R
WIS DELLS      NOT AVBL
$$

...ELSEWHERE IN WISCONSIN...


CITY           SKY/WX    TMP DP  RH WIND       PRES   REMARKS
MILWAUKEE      LGT SNOW  26  22  84 CALM      29.92R
MADISON        CLOUDY    25  22  88 CALM      29.90R
GREEN BAY      LGT SNOW  25  23  92 E3        29.95R FOG
EAU CLAIRE     NOT AVBL
BLACK RVR FLS  CLOUDY    26  26 100 NE3       29.91R FOG
MEDFORD        CLOUDY    20  19  95 CALM      29.88R FOG
WAUSAU         CLOUDY    21  19  92 NE3       29.89R
WIS RAPIDS     CLOUDY    23  19  85 CALM      29.91S
MARSHFIELD     CLOUDY    23  21  92 NE3       29.89R FOG
RICE LAKE      CLOUDY    31  28  89 N7        29.93R WCI  24
$$

...NORTHEAST IOWA...


CITY           SKY/WX    TMP DP  RH WIND       PRES   REMARKS
DECORAH        CLOUDY    36  34  93 NW8       29.89R WCI  29
MASON CITY     CLOUDY    35  31  85 NW13      29.96R WCI  26
CHARLES CITY   CLEAR     34  34 100 NW10      29.93R WCI  26
OELWEIN        CLOUDY    36  34  93 NW14      29.91R WCI  27
$$

...ELSEWHERE IN IOWA...


CITY           SKY/WX    TMP DP  RH WIND       PRES   REMARKS
DES MOINES     PTCLDY    37  32  82 NW7       29.99R WCI  32
IOWA CITY      CLOUDY    38  34  85 NW9       29.93R WCI  31
FORT DODGE     CLEAR     34  28  80 CALM      30.00R
$$

...NORTHERN ILLINOIS...


CITY           SKY/WX    TMP DP  RH WIND       PRES   REMARKS
CHICAGO-OHARE  LGT SNOW  26  24  92 SE5       29.90S FOG     WCI  20
CHICAGO-MIDWAY LGT SNOW  28  25  88 SE5       29.92R FOG     WCI  23
MOLINE         CLOUDY    32  29  88 CALM      29.89R FOG
ROCKFORD       LGT SNOW  27  24  89 CALM      29.91R FOG
PEORIA         CLOUDY    32  30  92 CALM      29.89S FOG
$$

NOTE: "FAIR" INDICATES FEW OR NO CLOUDS BELOW 12,000 FEET WITH NO
SIGNIFICANT WEATHER AND/OR OBSTRUCTIONS TO VISIBILITY. WIND
SPEEDS ARE IN MILES-PER-HOUR.



USA.gov is the U.S. government's official web portal to all federal, state and local government web resources and services.